Paducah, KY

10:09 AM CDT on October 17, 2019 (GMT -0500)
Barkley Regional

Weather History for KPAH - September, 2019

Change the Weather History Date:

Saturday, September 21, 2019

  Actual Average Record
Temperature  
Mean Temperature 79 °F 68 °F  
Max Temperature 90 °F 80 °F 98 °F (1940)
Min Temperature 68 °F 56 °F 38 °F (1991)
Degree Days  
Heating Degree Days 0 2  
Month to date heating degree days 0 11  
Since 1 July heating degree days 0 12  
Cooling Degree Days 14 5  
Month to date cooling degree days 277 155  
Year to date cooling degree days 1702 1468  
Growing Degree Days 29 (Base 50)    
Moisture  
Dew Point 60 °F    
Average Humidity 58    
Maximum Humidity 84    
Minimum Humidity 32    
Precipitation  
Precipitation 0.00 in 0.12 in 2.57 in (1979)
Month to date precipitation T 2.53  
Year to date precipitation 55.81 35.01  
Snow  
Snow 0.00 in 0.00 in 0.00 in (2002)
Month to date snowfall 0.0 0.0  
Since 1 July snowfall 0.0 0.0  
Since 1 September snowfall 0.0 0.0  
Snow Depth 0.00 in    
Sea Level Pressure  
Sea Level Pressure 30.14 in    
Wind  
Wind Speed 6 mph (South)    
Max Wind Speed 15 mph    
Max Gust Speed 28 mph    
Visibility 10 miles    
Events      
T = Trace of Precipitation, MM = Missing Value Source: NWS Daily Summary

Daily Weather History Graph

Daily Weather History Graph

Search for Another Location

Airport or City:

Astronomy

Sep. 21, 2019 Rise Set
Actual Time 6:41 AM CDT 6:53 PM CDT
Civil Twilight 6:15 AM CDT 7:19 PM CDT
Nautical Twilight 5:45 AM CDT 7:50 PM CDT
Astronomical Twilight 5:14 AM CDT 8:20 PM CDT
Moon 11:40 PM CDT (9/21) 1:39 PM CDT (9/21)
Length of Visible Light 13h 03m
Length of Day
12h 11m
Waning Gibbous, 54% of the Moon is Illuminated
Sep 21
Waning Gibbous
Sep 21
Last Quarter
Sep 28
New
Oct 5
First Quarter
Oct 13
Full

Hourly Weather History & Observations

Time (CDT) Temp. Heat Index Dew Point Humidity Pressure Visibility Wind Dir Wind Speed Gust Speed Precip Events Conditions
12:53 AM 69.1 °F - 64.9 °F 87% 30.14 in 10.0 mi SSE 3.5 mph - N/A   Clear
1:53 AM 71.1 °F - 64.0 °F 78% 30.15 in 10.0 mi South 3.5 mph - N/A   Clear
2:53 AM 70.0 °F - 63.0 °F 78% 30.15 in 10.0 mi South 6.9 mph - N/A   Clear
3:53 AM 72.0 °F - 63.0 °F 73% 30.15 in 10.0 mi South 4.6 mph - N/A   Clear
4:53 AM 71.1 °F - 63.0 °F 75% 30.16 in 10.0 mi South 5.8 mph - N/A   Clear
5:53 AM 70.0 °F - 63.0 °F 78% 30.18 in 10.0 mi South 6.9 mph - N/A   Clear
6:53 AM 68.0 °F - 62.1 °F 81% 30.19 in 9.0 mi SSE 5.8 mph - N/A   Clear
7:53 AM 71.1 °F - 63.0 °F 75% 30.21 in 10.0 mi Calm Calm - N/A   Clear
8:53 AM 75.0 °F - 63.0 °F 66% 30.22 in 10.0 mi SW 5.8 mph - N/A   Clear
9:53 AM 80.1 °F 80.9 °F 60.1 °F 50% 30.21 in 10.0 mi South 10.4 mph 18.4 mph N/A   Clear
10:53 AM 82.9 °F 82.8 °F 59.0 °F 44% 30.20 in 10.0 mi South 6.9 mph - N/A   Clear
11:53 AM 86.0 °F 85.4 °F 59.0 °F 40% 30.19 in 10.0 mi SW 9.2 mph - N/A   Clear
12:53 PM 87.1 °F 86.1 °F 57.9 °F 37% 30.17 in 10.0 mi SW 8.1 mph - N/A   Clear
1:53 PM 88.0 °F 86.7 °F 57.0 °F 35% 30.14 in 10.0 mi SW 8.1 mph 19.6 mph N/A   Clear
2:53 PM 89.1 °F 87.7 °F 57.0 °F 34% 30.12 in 10.0 mi SW 10.4 mph 27.6 mph N/A   Clear
3:53 PM 89.1 °F 87.3 °F 55.9 °F 32% 30.10 in 10.0 mi SSW 6.9 mph - N/A   Clear
4:53 PM 88.0 °F 86.5 °F 55.9 °F 34% 30.09 in 10.0 mi South 8.1 mph - N/A   Clear
5:53 PM 86.0 °F 84.9 °F 57.0 °F 37% 30.09 in 10.0 mi South 6.9 mph - N/A   Clear
6:53 PM 79.0 °F - 60.1 °F 52% 30.09 in 10.0 mi Calm Calm - N/A   Clear
7:53 PM 72.0 °F - 61.0 °F 68% 30.09 in 10.0 mi South 4.6 mph - N/A   Clear
8:53 PM 73.9 °F - 60.1 °F 62% 30.11 in 10.0 mi South 3.5 mph - N/A   Clear
9:53 PM 75.0 °F - 59.0 °F 57% 30.10 in 10.0 mi SSW 3.5 mph - N/A   Clear
10:53 PM 72.0 °F - 59.0 °F 64% 30.10 in 10.0 mi South 5.8 mph - N/A   Clear
11:53 PM 72.0 °F - 59.0 °F 64% 30.10 in 10.0 mi South 4.6 mph - N/A   Clear